DW0946 Weather Reports


Display with metric or nautical units.
time (UTC)temp
F
wind
direction
speed
MPH
gust
MPH
rain 1hr
in
rain 24hr
in
rain mn
in
humidity
%
barometer
mb
20181210103052 51 303 0.0 0.0 0.00 0.00 0.00 84 1031.1
20181210100111 51 304 0.0 0.0 0.00 0.00 0.00 87 1031.1
20181210094640 50 303 0.0 0.0 0.00 0.00 0.00 88 1031.3
20181210093114 50 303 0.0 2.0 0.00 0.00 0.00 89 1031.2
20181210091628 51 96 0.0 0.0 0.00 0.00 0.00 89 1031.1
20181210090052 51 96 0.0 0.0 0.00 0.00 0.00 88 1031.5
20181210084553 51 287 0.0 0.0 0.00 0.00 0.00 87 1031.4
20181210083041 51 287 0.0 0.0 0.00 0.00 0.00 88 1031.7
20181210081554 51 287 0.0 0.0 0.00 0.00 0.00 87 1031.7
20181210080050 52 287 0.0 0.0 0.00 0.00 0.00 87 1032.0
20181210074542 53 287 0.0 0.0 0.00 0.00 0.00 87 1032.0
20181210073027 54 290 0.0 1.0 0.00 0.00 0.00 86 1032.0
20181210071541 54 313 0.0 1.0 0.00 0.00 0.00 87 1032.1
20181210070026 54 318 0.0 1.0 0.00 0.00 0.00 89 1032.6
20181210064525 53 309 0.0 0.0 0.00 0.00 0.00 88 1032.9
20181210063029 54 309 0.0 0.0 0.00 0.00 0.00 88 1033.1
20181210061540 54 309 0.0 0.0 0.00 0.00 0.00 88 1033.3
20181210060021 54 321 0.0 0.0 0.00 0.00 0.00 89 1033.4
20181210054550 54 321 0.0 0.0 0.00 0.00 0.00 88 1033.5
20181210053043 54 321 0.0 0.0 0.00 0.00 0.00 88 1033.4
20181210051527 55 320 0.0 0.0 0.00 0.00 0.00 88 1033.4
20181210050049 55 121 0.0 1.0 0.00 0.00 0.00 89 1033.5
20181210044516 55 121 0.0 0.0 0.00 0.00 0.00 89 1033.5
20181210043027 55 121 0.0 0.0 0.00 0.00 0.00 88 1033.5
20181210041524 55 121 0.0 0.0 0.00 0.00 0.00 87 1033.7
20181210040026 56 228 0.0 0.0 0.00 0.00 0.00 86 1033.7
20181210034513 56 260 0.0 0.0 0.00 0.00 0.00 84 1033.8
20181210033014 57 273 0.0 0.0 0.00 0.00 0.00 82 1033.5
20181210031514 57 273 0.0 0.0 0.00 0.00 0.00 80 1033.4
20181210030036 58 267 0.0 2.0 0.00 0.00 0.00 79 1033.5
20181210024509 58 309 0.0 0.0 0.00 0.00 0.00 79 1033.4
20181210023021 59 309 0.0 0.0 0.00 0.00 0.00 79 1033.2
20181210021517 59 312 0.0 0.0 0.00 0.00 0.00 78 1033.2
20181210020027 60 311 0.0 0.0 0.00 0.00 0.00 78 1033.2
20181210014508 59 307 0.0 0.0 0.00 0.00 0.00 79 1033.4
20181210013027 59 307 0.0 0.0 0.00 0.00 0.00 80 1033.3
20181210011525 59 291 0.0 0.0 0.00 0.00 0.00 82 1033.3
20181210010014 60 288 0.0 0.0 0.00 0.00 0.00 82 1033.2
20181210004505 60 288 0.0 0.0 0.00 0.00 0.00 80 1033.3
20181210003014 61 288 0.0 0.0 0.00 0.00 0.00 79 1033.5
20181210001502 61 288 0.0 0.0 0.00 0.00 0.00 79 1033.4
20181210000214 61 288 0.0 0.0 0.00 0.00 0.00 79 1033.4
20181209234815 61 276 0.0 3.0 0.00 0.00 0.00 79 1033.4
20181209233213 62 293 1.0 4.0 0.00 0.00 0.00 77 1033.4
20181209231726 62 278 1.0 6.0 0.00 0.00 0.00 75 1033.6
20181209230210 63 252 3.0 6.0 0.00 0.00 0.00 73 1033.4
20181209224743 64 257 4.0 8.0 0.00 0.00 0.00 68 1033.3
20181209223242 65 294 3.0 7.0 0.00 0.00 0.00 66 1033.2
20181209221653 67 275 3.0 7.0 0.00 0.00 0.00 61 1032.9
20181209220212 68 169 3.0 7.0 0.00 0.00 0.00 60 1032.7
20181209214901 71 295 3.0 7.0 0.00 0.00 0.00 54 1032.6
20181209213117 72 217 1.0 3.0 0.00 0.00 0.00 49 1032.5
20181209211623 74 243 0.0 3.0 0.00 0.00 0.00 46 1032.6
20181209210223 74 238 0.0 3.0 0.00 0.00 0.00 45 1032.9
20181209204615 73 319 1.0 3.0 0.00 0.00 0.00 46 1033.3
20181209203130 74 264 0.0 3.0 0.00 0.00 0.00 44 1033.8
20181209201624 74 13 0.0 3.0 0.00 0.00 0.00 44 1034.1
20181209200116 73 274 0.0 4.0 0.00 0.00 0.00 42 1034.5
20181209194701 72 246 1.0 4.0 0.00 0.00 0.00 46 1035.1
20181209193052 71 209 1.0 4.0 0.00 0.00 0.00 49 1035.3
20181209191617 71 297 1.0 3.0 0.00 0.00 0.00 45 1035.7
20181209190051 71 215 1.0 4.0 0.00 0.00 0.00 47 1036.0
20181209184531 71 135 0.0 0.0 0.00 0.00 0.00 43 1036.2
20181209183104 71 259 0.0 0.0 0.00 0.00 0.00 45 1036.5
20181209181545 71 291 0.0 1.0 0.00 0.00 0.00 46 1036.7
20181209180031 70 210 0.0 1.0 0.00 0.00 0.00 48 1036.9
20181209174517 68 132 0.0 0.0 0.00 0.00 0.00 51 1037.1
20181209173037 67 240 0.0 0.0 0.00 0.00 0.00 54 1037.1
20181209171522 65 166 0.0 0.0 0.00 0.00 0.00 57 1037.2
20181209170014 63 315 0.0 0.0 0.00 0.00 0.00 58 1037.3
20181209163147 60 261 0.0 0.0 0.00 0.00 0.00 64 1037.2
20181209161627 58 262 0.0 0.0 0.00 0.00 0.00 66 1037.0
20181209160116 56 309 0.0 0.0 0.00 0.00 0.00 69 1036.8
20181209154623 56 309 0.0 0.0 0.00 0.00 0.00 74 1036.6
20181209153108 53 309 0.0 0.0 0.00 0.00 0.00 76 1036.5
20181209150100 51 287 0.0 0.0 0.00 0.00 0.00 79 1036.3
20181209144613 50 286 0.0 0.0 0.00 0.00 0.00 79 1036.1
20181209143058 50 316 0.0 0.0 0.00 0.00 0.00 78 1036.1
20181209141559 50 315 0.0 0.0 0.00 0.00 0.00 79 1035.9
20181209140043 50 316 0.0 0.0 0.00 0.00 0.00 79 1035.9
20181209134621 50 316 0.0 0.0 0.00 0.00 0.00 79 1035.9
20181209133041 50 309 0.0 0.0 0.00 0.00 0.00 80 1035.8
20181209131558 50 304 0.0 0.0 0.00 0.00 0.00 81 1035.5
20181209130146 50 304 0.0 0.0 0.00 0.00 0.00 82 1035.3
20181209124538 50 228 0.0 0.0 0.00 0.00 0.00 82 1035.4
20181209123037 50 227 0.0 0.0 0.00 0.00 0.00 82 1035.3
20181209121530 51 310 0.0 0.0 0.00 0.00 0.00 83 1035.4
20181209120059 51 297 0.0 0.0 0.00 0.00 0.00 83 1035.4
20181209114554 50 262 0.0 0.0 0.00 0.00 0.00 83 1035.5
20181209113039 51 261 0.0 0.0 0.00 0.00 0.00 83 1035.6
20181209111520 51 235 0.0 0.0 0.00 0.00 0.00 83 1035.7
20181209110054 50 311 0.0 0.0 0.00 0.00 0.00 84 1035.8
20181209104540 50 311 0.0 0.0 0.00 0.00 0.00 84 1035.8